IBS16NR LEMD-LEPA

Flight info

Callsign IBS16NR
Flight time N/A
Altitude 30000
Route NANDO T257 FENXE/N0467F320 T257 LASPO/N0449F260 M871 GODOX
Aircraft A320/M-SDE3FGHIRWY/LB1

Departure

Time 2026-05-07 22:04
Airport Adolfo Suárez Madrid–Barajas Airport (LEMD)

Arrival

Time N/A
Airport Palma de Mallorca Airport (LEPA)
Time Latitude Longitude Altitude Speed Heading
2026-05-07 21:39 40.49525 -3.59162 2022 ft 0 kts 91°
2026-05-07 21:48 40.49525 -3.59168 2022 ft 2 kts 91°
2026-05-07 21:48 40.49526 -3.59190 2033 ft 2 kts 92°
2026-05-07 21:49 40.49526 -3.59212 2027 ft 2 kts 94°
2026-05-07 21:49 40.49528 -3.59233 2030 ft 2 kts 88°
2026-05-07 21:49 40.49526 -3.59249 2029 ft 1 kts 41°
2026-05-07 21:49 40.49526 -3.59250 2029 ft 0 kts 41°
2026-05-07 21:50 40.49525 -3.59250 2029 ft 0 kts 41°
2026-05-07 21:59 40.49548 -3.59229 2032 ft 9 kts 28°
2026-05-07 21:59 40.49642 -3.59218 2025 ft 15 kts 359°
2026-05-07 21:59 40.49740 -3.59185 2022 ft 15 kts 68°
2026-05-07 22:00 40.49745 -3.59040 2027 ft 17 kts 90°
2026-05-07 22:00 40.49744 -3.58884 2030 ft 18 kts 90°
2026-05-07 22:00 40.49660 -3.58816 2022 ft 17 kts 180°
2026-05-07 22:00 40.49538 -3.58817 2027 ft 18 kts 180°
2026-05-07 22:01 40.49408 -3.58816 2022 ft 19 kts 179°
2026-05-07 22:01 40.49273 -3.58805 2022 ft 19 kts 153°
2026-05-07 22:01 40.49240 -3.58646 2025 ft 19 kts 90°
2026-05-07 22:01 40.49238 -3.58455 2016 ft 23 kts 90°
2026-05-07 22:02 40.49239 -3.58226 2006 ft 27 kts 88°
2026-05-07 22:02 40.49244 -3.58017 2002 ft 23 kts 88°
2026-05-07 22:02 40.49244 -3.57791 1993 ft 26 kts 89°
2026-05-07 22:02 40.49259 -3.57572 1988 ft 20 kts 70°
2026-05-07 22:03 40.49375 -3.57459 1985 ft 22 kts 17°
2026-05-07 22:03 40.49516 -3.57453 1984 ft 19 kts 359°
2026-05-07 22:03 40.49816 -3.57455 1987 ft 78 kts
2026-05-07 22:03 40.50567 -3.57459 1993 ft 135 kts 359°
2026-05-07 22:04 40.51659 -3.57470 2035 ft 175 kts
2026-05-07 22:04 40.52883 -3.57470 2638 ft 177 kts
2026-05-07 22:04 40.54119 -3.57404 3325 ft 179 kts
2026-05-07 22:04 40.55373 -3.57223 3881 ft 186 kts 10°
2026-05-07 22:05 40.56682 -3.56865 4171 ft 205 kts 15°
2026-05-07 22:05 40.58140 -3.56354 4404 ft 228 kts 17°
2026-05-07 22:05 40.59713 -3.55767 4818 ft 243 kts 17°
2026-05-07 22:05 40.61358 -3.55143 5575 ft 247 kts 17°
2026-05-07 22:06 40.63017 -3.54511 6412 ft 249 kts 16°
2026-05-07 22:06 40.64734 -3.54155 7175 ft 253 kts
2026-05-07 22:06 40.66499 -3.53996 7962 ft 256 kts
2026-05-07 22:06 40.68282 -3.53798 8765 ft 259 kts 11°
2026-05-07 22:07 40.69989 -3.53020 9553 ft 262 kts 30°
2026-05-07 22:07 40.71464 -3.51510 10040 ft 278 kts 50°
2026-05-07 22:07 40.72552 -3.49338 10469 ft 294 kts 68°
2026-05-07 22:07 40.72991 -3.46621 10731 ft 313 kts 94°
2026-05-07 22:08 40.72455 -3.43815 10965 ft 331 kts 120°
2026-05-07 22:08 40.71112 -3.41240 11131 ft 353 kts 128°
2026-05-07 22:08 40.69584 -3.38578 11257 ft 375 kts 129°
2026-05-07 22:08 40.67968 -3.35803 11656 ft 386 kts 129°
2026-05-07 22:09 40.66858 -3.33900 12060 ft 390 kts 129°
2026-05-07 22:09 40.65200 -3.31046 12694 ft 394 kts 128°
2026-05-07 22:09 40.62991 -3.27219 13522 ft 399 kts 128°
2026-05-07 22:09 40.61307 -3.24289 14088 ft 403 kts 128°
2026-05-07 22:10 40.60162 -3.22293 14445 ft 405 kts 128°
2026-05-07 22:10 40.58458 -3.19315 14966 ft 409 kts 128°
2026-05-07 22:10 40.56732 -3.16305 15479 ft 413 kts 128°
2026-05-07 22:10 40.54991 -3.13278 15970 ft 417 kts 128°
2026-05-07 22:11 40.53228 -3.10220 16455 ft 421 kts 128°
2026-05-07 22:11 40.51447 -3.07136 16935 ft 425 kts 128°
2026-05-07 22:11 40.49650 -3.04030 17404 ft 429 kts 128°
2026-05-07 22:11 40.47827 -3.00890 17884 ft 434 kts 128°
2026-05-07 22:12 40.45992 -2.97731 18345 ft 437 kts 128°
2026-05-07 22:12 40.44136 -2.94536 18726 ft 442 kts 128°
2026-05-07 22:12 40.42267 -2.91315 19111 ft 446 kts 128°
2026-05-07 22:12 40.40383 -2.88067 19473 ft 450 kts 128°
2026-05-07 22:13 40.38475 -2.84778 19843 ft 454 kts 128°
2026-05-07 22:13 40.36550 -2.81466 20205 ft 458 kts 128°
2026-05-07 22:13 40.34607 -2.78126 20558 ft 462 kts 128°
2026-05-07 22:13 40.32652 -2.74771 20899 ft 466 kts 129°
2026-05-07 22:14 40.30669 -2.71377 21237 ft 469 kts 129°
2026-05-07 22:14 40.28677 -2.67969 21570 ft 473 kts 129°
2026-05-07 22:14 40.26668 -2.64538 21906 ft 477 kts 129°
2026-05-07 22:14 40.24645 -2.61089 22239 ft 480 kts 129°
2026-05-07 22:15 40.22601 -2.57609 22562 ft 484 kts 129°
2026-05-07 22:15 40.20537 -2.54099 22884 ft 488 kts 129°
2026-05-07 22:15 40.18459 -2.50568 23176 ft 491 kts 129°
2026-05-07 22:15 40.16372 -2.47018 23473 ft 495 kts 129°
2026-05-07 22:16 40.14269 -2.43443 23733 ft 498 kts 129°
2026-05-07 22:16 40.12150 -2.39846 23990 ft 501 kts 129°
2026-05-07 22:16 40.10017 -2.36230 24263 ft 503 kts 129°
2026-05-07 22:16 40.07874 -2.32606 24532 ft 505 kts 129°
2026-05-07 22:17 40.05718 -2.28966 24804 ft 507 kts 130°
2026-05-07 22:17 40.03558 -2.25323 25105 ft 508 kts 130°
2026-05-07 22:17 40.01395 -2.21676 25498 ft 507 kts 130°
2026-05-07 22:17 39.99254 -2.18027 25882 ft 507 kts 128°
2026-05-07 22:18 39.97257 -2.14240 26243 ft 508 kts 124°
2026-05-07 22:18 39.93778 -2.06217 27011 ft 509 kts 119°
2026-05-07 22:18 39.92199 -2.02147 27371 ft 509 kts 118°
2026-05-07 22:19 39.90608 -1.98031 27745 ft 509 kts 119°
2026-05-07 22:19 39.88980 -1.93939 28143 ft 508 kts 120°
2026-05-07 22:19 39.87305 -1.89892 28525 ft 507 kts 121°
2026-05-07 22:19 39.85590 -1.85871 28910 ft 507 kts 122°
2026-05-07 22:20 39.83851 -1.81870 29287 ft 507 kts 122°
2026-05-07 22:20 39.82110 -1.77884 29680 ft 507 kts 122°
2026-05-07 22:20 39.80369 -1.73888 29994 ft 508 kts 122°
2026-05-07 22:21 39.76883 -1.65805 30044 ft 514 kts 122°
2026-05-07 22:21 39.73405 -1.57661 30046 ft 515 kts 122°
2026-05-07 22:22 39.69936 -1.49563 30037 ft 515 kts 122°
2026-05-07 22:22 39.68756 -1.46823 30030 ft 515 kts 122°
2026-05-07 22:23 39.65315 -1.38882 30005 ft 515 kts 122°
2026-05-07 22:23 39.61802 -1.30798 30002 ft 514 kts 122°
2026-05-07 22:24 39.58295 -1.22721 29994 ft 514 kts 122°
2026-05-07 22:24 39.54766 -1.14621 30000 ft 514 kts 122°
2026-05-07 22:25 39.51243 -1.06558 30007 ft 514 kts 122°
2026-05-07 22:25 39.47845 -0.98803 30009 ft 514 kts 123°
2026-05-07 22:26 39.44311 -0.90774 30015 ft 514 kts 123°
2026-05-07 22:26 39.40784 -0.82740 30011 ft 514 kts 123°
2026-05-07 22:27 39.37251 -0.74703 30009 ft 513 kts 123°
2026-05-07 22:27 39.33699 -0.66707 30010 ft 513 kts 123°
2026-05-07 22:28 39.30405 -0.58562 30002 ft 518 kts 113°
2026-05-07 22:28 39.28797 -0.49480 30003 ft 522 kts 95°
2026-05-07 22:29 39.29030 -0.40122 29996 ft 522 kts 85°
2026-05-07 22:29 39.29547 -0.30743 30001 ft 523 kts 86°
2026-05-07 22:30 39.30032 -0.21372 29996 ft 524 kts 86°
2026-05-07 22:30 39.30497 -0.11975 29994 ft 524 kts 86°
2026-05-07 22:31 39.30964 -0.02572 29994 ft 525 kts 86°
2026-05-07 22:31 39.31435 0.06837 29992 ft 525 kts 86°
2026-05-07 22:32 39.31903 0.16264 29991 ft 526 kts 86°
2026-05-07 22:32 39.32349 0.25638 29994 ft 526 kts 86°
2026-05-07 22:33 39.32789 0.35074 29996 ft 526 kts 86°
2026-05-07 22:33 39.33231 0.44513 29988 ft 526 kts 86°
2026-05-07 22:34 39.33658 0.53958 29986 ft 527 kts 86°
2026-05-07 22:34 39.34083 0.63442 29995 ft 527 kts 86°
2026-05-07 22:35 39.34506 0.72904 29740 ft 530 kts 87°
2026-05-07 22:35 39.34711 0.77645 28917 ft 528 kts 87°
2026-05-07 22:35 39.34914 0.82376 28096 ft 527 kts 87°
2026-05-07 22:35 39.35115 0.87094 27308 ft 525 kts 87°
2026-05-07 22:36 39.35315 0.91799 26544 ft 524 kts 87°
2026-05-07 22:36 39.35508 0.96449 25804 ft 522 kts 88°
2026-05-07 22:36 39.35698 1.01130 25076 ft 521 kts 88°
2026-05-07 22:36 39.35883 1.05788 24370 ft 519 kts 88°
2026-05-07 22:37 39.36069 1.10423 23676 ft 513 kts 88°
2026-05-07 22:37 39.36256 1.14992 22876 ft 506 kts 88°
2026-05-07 22:37 39.36441 1.19496 22074 ft 498 kts 88°
2026-05-07 22:37 39.36619 1.23941 21296 ft 491 kts 88°
2026-05-07 22:38 39.36789 1.28318 20533 ft 485 kts 88°
2026-05-07 22:38 39.36951 1.32636 19795 ft 478 kts 88°
2026-05-07 22:38 39.37109 1.36907 19067 ft 472 kts 88°
2026-05-07 22:38 39.37301 1.41113 18369 ft 467 kts 84°
2026-05-07 22:39 39.37810 1.45256 17574 ft 462 kts 81°
2026-05-07 22:39 39.38352 1.49338 16776 ft 457 kts 81°
2026-05-07 22:39 39.38886 1.53367 16013 ft 453 kts 81°
2026-05-07 22:39 39.39417 1.57358 15348 ft 446 kts 80°
2026-05-07 22:40 39.39934 1.61275 14740 ft 439 kts 81°
2026-05-07 22:40 39.40441 1.65143 14136 ft 433 kts 81°
2026-05-07 22:40 39.40935 1.68946 13515 ft 426 kts 81°
2026-05-07 22:40 39.41417 1.72673 12862 ft 420 kts 81°
2026-05-07 22:41 39.41892 1.76370 12218 ft 414 kts 81°
2026-05-07 22:41 39.42362 1.80026 11577 ft 408 kts 81°
2026-05-07 22:41 39.42826 1.83620 10958 ft 402 kts 80°
2026-05-07 22:41 39.43286 1.87174 10348 ft 396 kts 80°
2026-05-07 22:42 39.43733 1.90631 10050 ft 382 kts 80°
2026-05-07 22:42 39.44160 1.93946 9967 ft 363 kts 80°